Time,TemperatureF,DewpointF,PressureIn,WindDirection,WindDirectionDegrees,WindSpeedMPH,WindSpeedGustMPH,Humidity,HourlyPrecipIn,Conditions,Clouds,dailyrainin,SolarRadiationWatts/m^2,SoftwareType,DateUTC
2013-01-31 00:00:00,-999.9,-99.9,30.11,NW,322,0.0,0.0,255,0.00,,,0.09,0,Wunderground v.1.15,2013-01-31 06:00:00,
2013-01-31 00:30:00,-999.9,-99.9,30.13,North,355,1.0,2.0,255,0.00,,,0.00,0,Wunderground v.1.15,2013-01-31 06:30:00,
2013-01-31 01:00:00,-999.9,-99.9,30.14,NNW,333,1.0,2.0,255,0.00,,,0.00,0,Wunderground v.1.15,2013-01-31 07:00:00,
2013-01-31 01:30:00,-999.9,-99.9,30.15,NNW,336,1.0,1.0,255,0.00,,,0.00,0,Wunderground v.1.15,2013-01-31 07:30:00,
2013-01-31 02:00:00,-999.9,-99.9,30.15,NNW,336,0.0,0.0,255,0.00,,,0.00,0,Wunderground v.1.15,2013-01-31 08:00:00,
2013-01-31 02:30:00,-999.9,-99.9,30.16,North,349,0.0,0.0,255,0.00,,,0.00,0,Wunderground v.1.15,2013-01-31 08:30:00,
2013-01-31 03:00:00,-999.9,-99.9,30.17,NNW,329,0.0,0.0,255,0.00,,,0.00,0,Wunderground v.1.15,2013-01-31 09:00:00,
2013-01-31 03:30:00,-999.9,-99.9,30.18,NNW,329,0.0,0.0,255,0.00,,,0.00,0,Wunderground v.1.15,2013-01-31 09:30:00,
2013-01-31 04:00:00,-999.9,-99.9,30.17,NNW,329,0.0,0.0,255,0.00,,,0.00,0,Wunderground v.1.15,2013-01-31 10:00:00,
2013-01-31 04:30:00,-999.9,-99.9,30.18,NNW,329,0.0,0.0,255,0.00,,,0.00,0,Wunderground v.1.15,2013-01-31 10:30:00,
2013-01-31 05:00:00,-999.9,-99.9,30.19,NNW,329,0.0,0.0,255,0.00,,,0.00,0,Wunderground v.1.15,2013-01-31 11:00:00,
2013-01-31 05:30:00,-999.9,-99.9,30.19,NNW,329,0.0,0.0,255,0.00,,,0.00,0,Wunderground v.1.15,2013-01-31 11:30:00,
2013-01-31 06:00:00,39.6,-99.9,30.21,NNW,329,0.0,0.0,255,0.00,,,0.00,0,Wunderground v.1.15,2013-01-31 12:00:00,
2013-01-31 06:30:00,39.0,-99.9,30.22,NNW,329,0.0,0.0,255,0.00,,,0.00,0,Wunderground v.1.15,2013-01-31 12:30:00,
2013-01-31 07:00:00,38.4,-99.9,30.23,NNW,329,0.0,0.0,255,0.00,,,0.00,11,Wunderground v.1.15,2013-01-31 13:00:00,
2013-01-31 07:30:00,38.0,12.7,30.24,NNW,329,0.0,0.0,35,0.00,,,0.00,26,Wunderground v.1.15,2013-01-31 13:30:00,
2013-01-31 08:00:00,39.0,-99.9,30.26,NNW,329,0.0,0.0,255,0.00,,,0.00,37,Wunderground v.1.15,2013-01-31 14:00:00,
2013-01-31 08:30:00,-999.9,-99.9,30.27,NNW,328,0.0,0.0,255,0.00,,,0.00,44,Wunderground v.1.15,2013-01-31 14:30:00,
2013-01-31 09:00:00,-999.9,-99.9,30.28,WNW,300,1.0,1.0,255,0.00,,,0.00,281,Wunderground v.1.15,2013-01-31 15:00:00,
2013-01-31 09:30:00,-999.9,-99.9,30.29,North,360,1.0,3.0,255,0.00,,,0.00,357,Wunderground v.1.15,2013-01-31 15:30:00,
2013-01-31 10:00:00,-999.9,-99.9,30.29,NNW,348,3.0,3.0,255,0.00,,,0.00,548,Wunderground v.1.15,2013-01-31 16:00:00,
2013-01-31 10:30:00,-999.9,-99.9,30.30,North,355,3.0,3.0,255,0.00,,,0.00,659,Wunderground v.1.15,2013-01-31 16:30:00,
2013-01-31 11:00:00,-999.9,-99.9,30.30,NW,326,2.0,4.0,255,0.00,,,0.00,705,Wunderground v.1.15,2013-01-31 17:00:00,
2013-01-31 11:30:00,-999.9,-99.9,30.29,NNW,331,2.0,2.0,255,0.00,,,0.00,738,Wunderground v.1.15,2013-01-31 17:30:00,
2013-01-31 12:00:00,-999.9,-99.9,30.28,NNW,335,3.0,5.0,255,0.00,,,0.00,752,Wunderground v.1.15,2013-01-31 18:00:00,
2013-01-31 12:30:00,-999.9,-99.9,30.27,WNW,283,4.0,4.0,255,0.00,,,0.00,747,Wunderground v.1.15,2013-01-31 18:30:00,
2013-01-31 13:00:00,-999.9,-99.9,30.25,North,5,2.0,2.0,255,0.00,,,0.00,51,Wunderground v.1.15,2013-01-31 19:00:00,
2013-01-31 13:30:00,-999.9,-99.9,30.24,WNW,296,3.0,4.0,255,0.00,,,0.00,47,Wunderground v.1.15,2013-01-31 19:30:00,
2013-01-31 14:00:00,-999.9,-99.9,30.23,NW,319,3.0,3.0,255,0.00,,,0.00,44,Wunderground v.1.15,2013-01-31 20:00:00,
2013-01-31 14:30:00,-999.9,-99.9,30.23,NNW,337,3.0,3.0,255,0.00,,,0.00,39,Wunderground v.1.15,2013-01-31 20:30:00,
2013-01-31 15:00:00,-999.9,-99.9,30.24,NNW,338,4.0,5.0,255,0.00,,,0.00,54,Wunderground v.1.15,2013-01-31 21:00:00,
2013-01-31 15:30:00,-999.9,-99.9,30.24,NNW,338,3.0,3.0,255,0.00,,,0.00,39,Wunderground v.1.15,2013-01-31 21:30:00,
2013-01-31 16:00:00,-999.9,-99.9,30.24,North,9,2.0,2.0,255,0.00,,,0.00,25,Wunderground v.1.15,2013-01-31 22:00:00,
2013-01-31 16:30:00,-999.9,-99.9,30.25,North,355,0.0,0.0,255,0.00,,,0.00,39,Wunderground v.1.15,2013-01-31 22:30:00,
2013-01-31 17:00:00,-999.9,-99.9,30.25,North,355,0.0,0.0,255,0.00,,,0.00,9,Wunderground v.1.15,2013-01-31 23:00:00,
2013-01-31 17:30:00,-999.9,-99.9,30.26,North,355,0.0,0.0,255,0.00,,,0.00,0,Wunderground v.1.15,2013-01-31 23:30:00,
2013-01-31 18:00:00,-999.9,-99.9,30.27,North,355,0.0,0.0,255,0.00,,,0.00,0,Wunderground v.1.15,2013-02-01 00:00:00,
2013-01-31 18:30:00,-999.9,-99.9,30.28,North,355,0.0,0.0,255,0.00,,,0.00,0,Wunderground v.1.15,2013-02-01 00:30:00,
2013-01-31 19:00:00,-999.9,-99.9,30.29,North,355,0.0,0.0,255,0.00,,,0.00,0,Wunderground v.1.15,2013-02-01 01:00:00,
2013-01-31 19:30:00,-999.9,-99.9,30.30,North,355,0.0,0.0,255,0.00,,,0.00,0,Wunderground v.1.15,2013-02-01 01:30:00,
2013-01-31 20:00:00,-999.9,-99.9,30.31,North,355,0.0,0.0,255,0.00,,,0.00,0,Wunderground v.1.15,2013-02-01 02:00:00,
2013-01-31 20:30:00,-999.9,-99.9,30.31,North,355,0.0,0.0,255,0.00,,,0.00,0,Wunderground v.1.15,2013-02-01 02:30:00,
2013-01-31 21:00:00,-999.9,-99.9,30.31,North,355,0.0,0.0,255,0.00,,,0.00,0,Wunderground v.1.15,2013-02-01 03:00:00,
2013-01-31 21:30:00,-999.9,-99.9,30.31,North,355,0.0,0.0,255,0.00,,,0.00,0,Wunderground v.1.15,2013-02-01 03:30:00,
2013-01-31 22:00:00,-999.9,-99.9,30.31,North,355,0.0,0.0,255,0.00,,,0.00,0,Wunderground v.1.15,2013-02-01 04:00:00,
2013-01-31 22:30:00,-999.9,-99.9,30.32,North,355,0.0,0.0,255,0.00,,,0.00,0,Wunderground v.1.15,2013-02-01 04:30:00,
2013-01-31 23:00:00,-999.9,-99.9,30.33,North,355,0.0,0.0,255,0.00,,,0.00,0,Wunderground v.1.15,2013-02-01 05:00:00,
2013-01-31 23:30:00,-999.9,-99.9,30.34,North,355,0.0,0.0,255,0.00,,,0.00,0,Wunderground v.1.15,2013-02-01 05:30:00,